Tracking 30995 objects as of 7-Jul-2025
HD Live streaming from Space Station
objects crossing your sky now

STARLINK-5268

Track STARLINK-5268 now!
10-day predictions
STARLINK-5268 is classified as:


NORAD ID: 54192
Int'l Code: 2022-141AM
Perigee: 546.1 km
Apogee: 547.7 km
Inclination: 53.2 °
Period: 95.4 minutes
Semi major axis: 6917 km
RCS: Unknown
Launch date: October 28, 2022
Source: United States (US)
Launch site: AIR FORCE WESTERN TEST RANGE (AFWTR)
Your satellite tracking list
STARLINK-3275
Track 1 satellite(s)




NASA's NSSDC Master Catalog

Two Line Element Set (TLE):
1 54192U 22141AM  25187.81908397 -.00002069  00000-0 -11194-3 0  9997
2 54192  53.2190  17.6025 0001155  92.6524 267.4601 15.08843614149116
Source of the keplerian elements: AFSPC